Dewpoint
48 47 46 49 47 47 48 47 44 43 46 48 48 47 45 46 46 48 48 48 47 47 47 46 45 45 43 39 36 40 40 40 43 41 44 46 44 44 41 44 44 40 40 40 47 48 48
49 47 46 48 46 48 48 44 44 44 44 47 47 47 48 45 45 45 47 47 46 46 46 45 45 45 40 32 37 41 40 38 38 44 45 46 43 44 43 43 43 43 39 42 44 44 41
48 48 47 47 48 46 47 45 44 44 43 45 47 47 47 46 45 44 44 45 45 45 46 45 45 43 39 32 37 39 39 37 40 43 44 47 48 42 43 41 44 42 39 41 41 41 42
48 48 47 46 48 45 48 48 46 45 43 42 44 47 46 47 46 46 46 43 43 44 45 45 46 44 33 39 39 37 40 38 40 46 45 49 50 42 42 43 42 38 38 36 39 40 40
48 48 47 46 45 47 47 47 46 47 47 43 42 43 46 46 47 47 48 47 44 45 45 45 43 40 28 37 38 38 40 38 41 47 48 48 49 41 40 39 36 37 33 34 34 39 36
48 48 47 46 45 44 47 45 46 47 46 46 42 43 45 46 47 47 47 47 46 45 45 45 43 36 34 32 35 37 38 41 42 43 44 45 46 38 37 37 27 31 33 32 31 35 35
47 47 47 46 45 45 47 47 45 44 45 45 43 43 44 45 47 48 46 40 36 36 37 34 34 32 33 36 38 37 40 38 39 39 37 43 37 30 35 37 34 33 32 31 32 33 34
47 47 47 46 46 45 45 44 44 44 45 43 44 43 43 45 46 48 40 36 36 36 28 34 34 35 38 40 32 37 40 35 34 32 39 40 32 32 37 37 34 33 31 31 32 33 34
47 47 46 46 46 45 45 44 45 44 44 44 44 44 43 45 47 41 38 37 41 41 32 34 38 37 37 37 31 35 39 36 33 32 34 34 36 36 36 36 34 34 30 30 30 30 30
46 47 46 46 46 45 44 43 45 44 44 44 45 44 44 45 44 41 38 41 42 40 29 31 35 36 38 38 32 40 41 38 35 32 35 37 36 35 36 35 35 32 32 30 29 28 28
46 46 46 46 46 45 45 44 44 44 44 45 44 44 46 45 41 39 38 41 41 39 18 35 36 42 40 37 37 36 40 39 32 33 33 34 35 34 34 35 34 31 31 30 29 28 26
46 46 46 45 45 45 45 44 43 44 44 44 44 45 45 46 46 43 42 42 40 24 19 32 37 36 35 36 36 36 37 42 41 36 38 38 40 38 37 38 35 35 30 30 30 28 24
46 45 45 45 45 44 44 44 44 44 44 44 44 46 45 45 39 44 43 39 23 22 31 31 33 34 34 33 35 37 35 35 32 30 31 36 36 39 39 35 37 33 28 26 25 25 23
45 45 45 44 44 44 44 44 44 44 44 45 45 46 47 45 44 43 40 28 22 26 30 35 36 36 33 36 35 35 33 32 36 35 32 30 28 36 38 35 33 32 27 23 18 20 22
45 44 44 43 43 43 44 44 44 44 44 45 44 43 43 43 44 42 33 22 22 24 30 32 34 32 32 35 36 36 35 34 34 35 28 28 29 37 39 39 37 34 30 26 20 21 20
44 44 43 43 42 43 44 44 43 43 44 44 41 40 40 44 43 40 29 27 28 31 33 34 30 29 31 34 34 33 33 36 35 37 33 29 27 34 37 37 38 36 34 26 23 17 17
44 43 43 43 42 43 44 44 43 43 43 44 39 37 41 45 43 35 28 28 31 34 34 33 32 28 29 31 32 29 29 32 35 36 34 30 29 31 37 34 32 35 33 30 26 20 17
43 42 42 41 43 43 44 43 43 43 43 41 36 34 42 44 35 33 30 32 34 34 36 35 35 31 28 27 29 29 28 30 33 35 32 32 30 27 31 35 37 37 34 29 24 22 20
43 42 41 42 43 43 43 43 43 42 42 40 35 35 39 43 29 31 34 34 35 33 33 31 30 29 29 27 27 30 30 32 32 32 32 32 29 25 27 31 35 35 36 32 27 24 20
42 41 41 43 43 43 43 43 43 42 41 39 33 27 31 35 34 34 32 33 33 35 33 30 29 29 27 27 30 28 29 32 30 30 33 31 28 23 20 22 29 31 35 34 29 25 23
42 40 41 43 43 42 43 43 43 41 39 33 31 29 31 28 31 31 32 33 31 31 33 31 29 29 27 25 27 29 31 31 30 30 32 28 25 26 28 30 28 30 31 33 31 30 26
42 40 42 43 43 42 42 43 43 41 36 32 26 24 29 26 30 31 31 31 33 33 33 31 30 32 30 26 26 27 29 29 28 29 30 29 24 25 24 28 26 24 28 32 33 31 30
42 41 43 43 43 42 42 42 43 41 35 30 32 32 30 26 26 30 26 28 32 34 35 35 35 32 30 30 30 29 31 30 29 28 28 27 26 21 17 25 23 17 21 26 31 29 29
41 41 43 43 43 42 42 42 42 42 38 33 33 31 23 20 23 24 23 25 29 31 33 34 36 32 33 34 31 30 30 30 30 29 30 27 24 24 23 22 15 16 26 26 26 29 29
41 41 42 44 43 41 43 42 42 42 42 36 35 30 26 15 24 24 23 25 29 32 35 35 37 35 39 33 28 27 27 28 28 30 29 29 27 24 21 21 20 20 26 26 25 23 28
42 41 43 44 43 41 42 42 43 43 43 36 36 35 29 22 20 24 23 27 28 31 34 37 39 39 37 33 29 24 22 24 26 29 30 29 28 24 24 20 14 23 29 28 28 24 32
42 42 43 44 43 41 42 42 42 42 43 39 35 36 31 26 25 25 21 19 23 31 28 32 34 36 37 33 29 27 25 26 24 25 27 27 27 24 24 23 22 25 30 31 24 23 35
43 43 43 44 42 41 42 42 42 42 43 39 37 38 34 29 28 29 28 24 29 27 22 31 32 36 35 33 32 30 26 25 25 26 26 25 24 25 24 22 17 29 32 28 30 36 35
43 43 44 44 42 41 41 41 42 42 42 41 34 39 39 34 30 31 31 30 29 26 26 29 31 31 34 34 33 32 29 29 26 23 28 23 25 23 24 23 25 29 32 33 37 36 36
Wind_Speed
11 12 12 13 16 18 18 17 19 19 19 21 21 21 22 22 23 19 14 9 3 1 2 2 2 2 5 3 8 8 12 3 8 11 15 14 11 9 16 11 11 5 18 15 16 6 5
10 11 12 13 15 17 18 18 18 20 18 20 20 20 20 19 19 20 16 11 7 4 2 2 2 4 3 4 5 5 7 3 10 10 18 17 11 7 8 10 15 9 6 18 14 10 12
10 11 11 12 15 16 17 18 18 19 20 18 19 19 20 16 15 14 13 10 7 5 1 2 3 1 1 8 2 7 4 4 12 17 18 15 7 14 3 3 6 5 10 11 13 13 7
9 10 10 13 15 17 18 18 17 19 19 19 17 18 18 17 13 12 10 8 5 3 2 1 0 1 5 4 5 3 7 6 20 12 12 14 9 10 3 3 5 3 9 9 15 17 7
8 9 10 12 14 15 16 18 19 19 18 19 19 17 17 17 14 11 11 8 2 1 2 1 3 2 5 7 1 3 9 5 17 4 4 6 11 6 0 8 8 5 13 19 10 25 14
8 9 9 12 13 14 16 18 19 20 19 18 19 18 17 16 15 14 13 5 3 1 1 2 1 2 3 4 3 4 6 8 1 2 10 10 8 14 8 12 28 32 19 20 20 24 29
7 9 10 11 13 15 15 17 19 18 18 18 18 19 16 16 14 14 6 3 2 0 2 4 0 2 3 7 4 1 7 6 6 5 11 12 7 35 33 17 2 15 10 19 6 12 20
6 8 9 10 12 14 17 17 19 21 19 19 19 19 16 15 13 12 3 3 3 1 0 1 7 5 1 1 3 1 2 4 5 1 5 8 20 21 15 14 6 17 10 16 5 9 18
5 7 9 10 12 14 16 18 20 21 21 20 21 20 18 13 11 1 5 3 4 2 2 2 3 1 1 2 1 3 1 8 6 4 4 4 12 17 17 14 10 8 14 11 11 6 2
5 7 8 10 12 15 16 19 21 22 22 22 22 22 17 7 1 1 2 4 2 3 1 1 2 0 1 1 3 2 2 4 5 6 6 2 19 20 20 13 8 6 5 9 11 13 10
5 6 9 10 12 15 16 20 21 23 24 24 24 23 12 3 1 4 4 7 4 3 3 1 4 2 2 2 4 2 2 2 11 5 6 5 27 22 18 11 8 4 4 9 4 5 3
4 6 8 11 13 15 17 20 22 24 26 26 27 21 6 2 2 1 7 5 3 1 7 2 1 3 5 2 0 3 3 2 3 2 4 8 6 6 4 6 7 6 9 10 7 3 11
3 6 8 11 13 15 18 20 23 25 26 28 28 18 4 5 2 4 6 3 2 7 2 3 1 4 3 4 5 4 7 9 4 4 5 18 6 4 3 12 3 3 8 4 3 7 10
4 5 8 11 13 16 19 21 23 26 27 27 25 7 9 3 4 5 2 1 9 1 1 0 1 6 1 2 5 6 1 5 3 2 8 7 10 3 3 5 7 7 6 7 7 7 4
4 5 7 10 14 16 19 20 24 26 26 27 12 2 5 3 6 3 1 4 3 5 2 1 3 3 1 3 3 3 3 2 3 8 3 6 4 3 4 2 5 6 9 2 6 3 0
5 4 6 10 14 16 19 21 24 26 27 21 3 2 2 4 7 4 1 1 1 4 2 2 4 1 2 2 3 3 3 3 6 8 2 5 7 1 2 2 1 2 4 6 1 5 7
6 2 5 9 13 16 19 21 24 28 28 12 3 1 2 4 3 2 2 1 2 5 4 1 3 1 0 3 2 3 2 4 4 6 4 7 4 5 8 8 12 5 6 3 4 4 5
6 2 3 8 12 16 18 22 24 26 26 7 2 1 1 1 2 1 2 2 1 1 2 2 2 2 2 2 3 2 4 2 4 10 6 2 5 7 4 2 5 8 9 11 13 7 3
7 3 1 6 11 15 18 22 24 27 20 1 2 3 2 1 2 3 0 1 1 1 2 1 2 4 3 2 3 3 3 1 3 8 8 8 5 7 1 3 3 9 11 10 4 3 12
10 5 0 5 10 14 18 21 24 26 16 3 2 1 4 3 2 1 4 3 1 1 2 2 2 3 2 3 6 3 3 1 2 3 3 5 5 6 15 4 8 11 14 15 18 18 10
11 6 2 3 9 13 16 20 24 27 13 3 5 1 1 3 4 6 2 4 2 2 1 3 1 4 2 2 2 2 2 2 3 3 3 2 5 4 2 2 4 6 17 24 22 25 18
12 8 3 3 7 11 15 19 24 28 9 7 3 2 3 2 6 4 4 3 6 5 4 3 2 6 2 2 2 5 5 4 4 2 3 1 2 2 3 3 4 6 12 21 26 17 18
14 10 5 4 6 9 13 17 19 25 12 6 3 2 2 4 5 1 4 5 3 7 2 6 5 4 2 2 2 1 4 3 4 7 6 3 7 5 4 2 4 10 16 19 12 15 19
16 12 7 5 5 8 10 13 16 17 11 3 3 2 2 0 3 2 4 8 7 10 3 9 5 2 3 5 2 3 9 8 5 2 4 6 6 3 2 1 5 4 2 6 20 10 21
17 13 9 6 5 7 9 12 12 12 11 5 2 2 2 1 1 2 6 4 9 9 3 4 4 2 4 3 2 2 2 2 1 2 4 4 6 3 3 5 10 7 2 4 6 9 22
18 14 10 7 6 7 8 11 10 12 7 4 3 2 2 1 3 1 2 3 3 4 7 2 5 7 3 2 2 3 4 3 2 1 3 5 6 3 2 3 5 2 2 3 4 9 6
18 15 12 9 7 5 6 8 7 10 7 3 1 2 3 2 3 3 3 2 3 0 3 4 8 5 2 2 3 4 4 3 4 5 5 4 2 8 6 4 8 8 4 5 1 4 9
19 16 13 11 8 6 6 7 6 8 8 3 2 2 0 2 6 4 3 5 1 2 2 6 4 1 1 6 4 4 5 6 3 3 5 11 9 6 6 5 7 3 3 4 4 4 4
20 17 14 11 9 6 6 6 8 9 10 4 1 1 2 4 5 4 6 9 8 6 1 1 1 4 5 3 2 1 3 3 4 3 2 6 8 5 10 7 5 5 5 3 4 2 2
Wind_Direction
354 2 357 359 355 357 356 353 355 350 349 346 347 347 353 355 359 358 355 352 20 301 85 117 263 186 129 144 259 316 330 7 305 263 218 216 179 181 188 188 174 177 187 201 115 141 264
351 354 352 356 353 358 350 357 353 349 354 346 349 345 353 355 3 9 22 37 53 65 75 137 132 136 98 251 236 343 354 341 322 296 194 206 197 202 196 171 182 188 83 116 132 192 235
343 344 353 353 350 352 352 354 355 349 351 351 348 344 348 356 356 2 7 15 30 43 36 112 127 93 142 253 220 350 339 296 309 288 186 198 212 197 190 160 175 148 101 141 172 152 209
336 343 350 345 347 352 353 349 349 349 350 347 349 344 341 345 347 354 356 0 357 10 345 331 149 10 256 265 295 316 104 303 308 210 181 183 202 216 261 135 105 174 150 159 190 179 231
331 336 344 339 350 348 346 346 350 345 345 350 345 342 334 339 337 332 333 329 304 262 230 212 31 1 294 317 96 350 121 162 285 91 177 186 177 195 131 134 127 148 192 197 156 197 195
322 330 340 336 343 345 341 349 350 343 343 345 343 341 334 334 330 328 338 319 180 52 203 138 137 339 302 343 333 318 209 176 154 88 155 179 196 177 179 171 185 188 194 192 189 193 203
315 327 333 333 340 335 344 346 342 343 342 340 339 337 333 330 325 329 353 89 84 250 212 190 188 241 337 325 300 238 120 88 45 36 193 206 167 183 194 183 37 171 151 196 190 185 191
305 320 329 333 330 332 336 340 340 341 340 337 336 334 330 325 321 323 97 109 133 108 338 278 260 234 127 328 322 325 111 93 79 183 176 200 186 181 157 176 142 164 164 180 159 167 194
295 316 327 328 330 331 334 337 336 337 338 336 334 331 325 316 316 3 95 140 148 111 97 343 341 358 303 12 125 227 329 114 94 284 285 199 162 168 164 178 143 173 176 166 175 130 89
285 316 320 326 329 331 336 334 334 336 337 334 333 332 322 309 149 173 139 169 120 119 247 339 108 315 154 274 143 83 340 136 102 232 203 202 159 152 152 172 137 144 182 152 140 173 209
285 316 318 327 329 334 333 331 335 335 335 336 335 333 328 228 186 170 161 147 133 89 63 46 135 180 74 296 110 185 331 335 141 184 185 195 147 150 158 165 134 98 159 185 180 166 167
280 310 319 328 331 338 334 333 335 335 337 337 334 332 330 90 196 235 136 118 109 36 43 81 130 145 169 152 88 130 164 296 42 225 219 93 76 97 128 105 165 120 103 84 80 130 244
268 303 319 329 334 340 336 335 337 337 339 336 333 331 217 159 193 142 139 116 71 47 349 10 333 172 156 168 171 170 149 131 198 171 122 106 89 66 80 129 99 139 140 110 144 197 230
252 298 321 330 338 340 339 339 339 338 339 333 334 358 173 207 207 131 112 76 64 247 296 337 83 29 29 116 64 114 73 162 166 267 78 111 141 121 347 149 173 170 170 165 186 200 223
229 290 322 334 340 342 343 342 340 340 340 336 341 36 141 221 150 111 94 49 132 183 229 326 124 65 75 120 141 158 170 157 108 195 130 124 92 76 36 99 143 170 191 173 105 65 219
210 275 326 337 342 345 346 347 343 343 340 345 18 14 66 141 145 107 70 57 145 196 173 268 65 123 116 135 110 122 131 192 153 210 163 128 110 35 147 88 33 116 142 190 135 207 231
205 255 336 340 344 350 348 349 349 345 343 346 38 66 138 146 126 97 84 161 279 245 177 164 6 60 153 155 139 120 126 171 158 153 124 141 118 153 147 200 195 178 195 184 174 188 235
194 178 342 346 352 354 352 352 352 349 346 34 27 213 40 148 189 110 86 148 192 221 200 265 259 280 19 78 97 118 144 124 187 153 131 135 105 153 175 337 203 218 228 198 200 210 220
182 172 345 358 358 1 358 356 354 349 353 338 57 298 351 86 90 53 319 116 189 340 279 117 332 350 2 52 99 108 123 4 153 163 158 173 123 120 158 300 216 223 208 215 135 124 212
180 171 131 5 5 6 1 360 353 352 358 91 70 346 323 27 39 33 25 27 26 181 289 266 277 312 339 59 41 130 128 80 93 127 110 131 150 185 199 201 162 203 205 205 208 225 223
176 171 180 25 15 10 6 5 357 359 4 83 33 104 136 309 12 7 0 341 341 53 260 329 75 25 319 83 88 106 110 101 48 63 63 132 202 184 277 224 178 219 210 212 215 222 220
172 171 161 72 27 16 13 12 5 2 20 72 66 43 12 326 317 346 13 352 47 345 24 13 15 350 29 186 180 206 156 193 184 154 139 76 198 146 224 201 212 245 223 217 222 236 245
170 173 159 103 46 26 25 29 20 13 36 64 3 3 31 360 350 305 15 328 338 354 59 70 1 347 61 73 15 306 200 206 170 172 166 158 153 161 245 328 308 275 241 208 209 214 219
171 173 164 119 71 40 37 35 29 27 50 83 30 36 49 256 43 54 335 328 320 326 316 318 341 338 342 305 149 76 64 75 132 118 150 151 141 141 180 82 240 248 285 228 222 232 219
173 172 163 139 97 59 45 47 34 26 37 56 51 41 56 179 6 325 339 325 322 316 304 301 307 323 324 29 81 67 0 21 252 357 193 163 144 151 203 219 297 299 203 186 188 276 227
174 173 158 151 112 72 62 50 38 27 38 67 45 83 67 47 240 225 318 340 324 332 333 326 355 333 25 97 111 215 226 206 220 249 30 127 117 143 149 243 247 300 330 174 140 286 322
173 172 163 152 129 100 74 52 25 21 31 82 347 99 59 322 273 189 236 312 300 353 269 308 336 345 25 143 161 211 248 210 205 192 183 180 180 221 217 259 282 260 245 145 185 293 317
171 170 161 155 147 110 77 49 29 21 22 79 297 181 359 288 281 248 234 208 216 264 273 348 310 202 342 183 203 202 218 224 200 198 181 184 190 200 190 222 266 201 131 203 256 295 312
170 167 161 159 154 123 86 53 44 26 27 128 30 49 151 238 266 239 244 257 261 233 358 241 269 301 345 257 236 188 225 216 203 238 169 217 197 198 195 218 238 228 231 255 216 278 17